This demonstration page uses our WeatherBlox Daily Observations layout. Learn more.

38.88101, -77.10428

Hourly Observations for June 17, 2017

Temp ( °F °C ) Dew Point ( °F °C ) Humidity (%) Winds ( mph kmh ) Pressure ( in mb ) Visibility ( mi km ) Precip ( " mm )
12:21 am 00:21 Mostly Cloudy 74 23.3 72 22.2 94 94 Calm 29.91 1013 10 16.0934 0 0
12:52 am 00:52 Mostly Cloudy 74 23.3 72 22.2 94 94 Calm 29.89 1012 10 16.0934 0 0
1:52 am 01:52 Mostly Cloudy 74 23.3 72 22.2 94 94 SSE 5 7 29.88 1012 10 16.0934 0 0
1:59 am 01:59 Mostly Cloudy 74 23.3 72 22.2 94 94 SSE 3 6 29.88 1012 10 16.0934 0 0
2:52 am 02:52 Mostly Cloudy 74 23.3 72 22.2 94 94 Calm 29.88 1012 10 16.0934 0 0
2:59 am 02:59 Mostly Cloudy 74 23.3 72 22.2 94 94 Calm 29.88 1012 10 16.0934 0 0
3:18 am 03:18 Mostly Cloudy 74 23.3 72 22.2 94 94 ESE 3 6 29.88 1012 10 16.0934 0 0
3:27 am 03:27 Mostly Cloudy 74 23.3 72 22.2 94 94 SE 5 7 29.88 1012 10 16.0934 0 0
3:52 am 03:52 Cloudy 74 23.3 72 22.2 94 94 SE 6 9 29.86 1011 10 16.0934 0 0
4:17 am 04:17 Cloudy 74 23.3 72 22.2 94 94 SE 7 11 29.88 1012 10 16.0934 0 0
4:50 am 04:50 Cloudy 73 23 72 22 94 94 SSE 8 13 29.88 1012 10 16.0934 0 0
4:52 am 04:52 Cloudy 74 23.3 71 21.7 91 91 SSE 9 15 29.87 1012 10 16.0934 0 0
5:22 am 05:22 Cloudy 74 23.3 72 22.2 94 94 S 9 15 29.88 1012 10 16.0934 0 0
5:52 am 05:52 Cloudy 74 23.3 72 22.2 94 94 S 8 13 29.88 1012 10 16.0934 0 0
5:58 am 05:58 Cloudy 74 23.3 72 22.2 94 94 S 8 13 29.88 1012 10 16.0934 0 0
6:14 am 06:14 Cloudy 74 23.3 72 22.2 94 94 S 7 11 29.88 1012 10 16.0934 0 0
6:34 am 06:34 Cloudy 74 23.3 72 22.2 94 94 S 7 11 29.88 1012 10 16.0934 0 0
6:52 am 06:52 Cloudy 74 23.3 72 22.2 94 94 S 7 11 29.89 1012 10 16.0934 0 0
6:54 am 06:54 Cloudy 74 23.3 72 22.2 94 94 S 6 9 29.88 1012 10 16.0934 0 0
7:10 am 07:10 Cloudy 74 23.3 72 22.2 94 94 S 6 9 29.91 1013 10 16.0934 0 0
7:31 am 07:31 Cloudy 74 23.3 72 22.2 94 94 S 8 13 29.91 1013 10 16.0934 0 0
7:35 am 07:35 Cloudy 74 23.3 72 22.2 94 94 SSW 8 13 29.91 1013 10 16.0934 0 0
7:52 am 07:52 Cloudy 74 23.3 72 22.2 94 94 S 10 17 29.9 1013 10 16.0934 0 0
8:11 am 08:11 Cloudy 74 23.3 72 22.2 94 94 S 10 17 29.91 1013 10 16.0934 0 0
8:28 am 08:28 Cloudy 75 23.9 73 22.8 94 94 S 10 17 29.91 1013 10 16.0934 0 0
8:32 am 08:32 Cloudy 75 23.9 73 22.8 94 94 S 8 13 29.91 1013 10 16.0934 0 0
8:52 am 08:52 Cloudy 75 23.9 73 22.8 94 94 SSW 9 15 29.91 1013 10 16.0934 0 0
9:18 am 09:18 Cloudy 75 23.9 72 22.2 90 90 S 8 13 29.91 1013 10 16.0934 0 0
9:43 am 09:43 Cloudy 75 23.9 72 22.2 90 90 S 12 19 29.91 1013 10 16.0934 0 0
9:52 am 09:52 Cloudy 75 23.9 72 22.2 90 90 SSW 9 15 29.92 1013 10 16.0934 0 0
9:55 am 09:55 Cloudy 75 23.9 72 22.2 90 90 S 9 15 29.91 1013 10 16.0934 0 0
10:32 am 10:32 Cloudy 76 24.4 72 22.2 88 88 SSW 9 15 29.91 1013 10 16.0934 0 0
10:52 am 10:52 Cloudy 76 24.4 72 22.2 88 88 WSW 8 13 29.92 1013 10 16.0934 0 0
11:08 am 11:08 Cloudy 78 25.6 72 22.2 82 82 WSW 7 11 29.91 1013 10 16.0934 0 0
11:52 am 11:52 Mostly Cloudy 79 26.1 73 22.8 82 82 SSE 10 17 29.91 1013 10 16.0934 0 0
12:36 pm 12:36 Mostly Cloudy 80 26.7 73 22.8 79 79 S 10 17 29.91 1013 10 16.0934 0 0
12:52 pm 12:52 Mostly Cloudy 82 27.8 72 22.2 72 72 SSE 12 19 29.9 1013 10 16.0934 0 0
1:52 pm 13:52 Mostly Cloudy 84 28.9 73 22.8 70 70 SSE 8 13 29.88 1012 10 16.0934 0 0
2:52 pm 14:52 Mostly Cloudy 86 30 74 23.3 67 67 S 9 15 29.87 1012 10 16.0934 0 0
3:52 pm 15:52 Mostly Cloudy 85 29.4 73 22.8 68 68 S 12 19 29.86 1011 10 16.0934 0 0
4:52 pm 16:52 Partly Cloudy 86 30 73 22.8 65 65 S 9 15 29.85 1011 10 16.0934 0 0.0254
5:52 pm 17:52 Partly Cloudy 87 30.6 72 22.2 61 61 S 14 22 29.84 1011 10 16.0934 0 0
6:52 pm 18:52 Partly Cloudy 85 29.4 73 22.8 68 68 S 15 24 29.85 1011 10 16.0934 0 0
7:52 pm 19:52 Mostly Cloudy 83 28.3 74 23.3 74 74 S 12 19 29.85 1011 10 16.0934 0 0
8:52 pm 20:52 Mostly Cloudy 81 27.2 72 22.2 74 74 S 12 19 29.86 1011 10 16.0934 0 0
9:52 pm 21:52 Mostly Cloudy 79 26.1 73 22.8 82 82 S 12 19 29.88 1012 10 16.0934 0 0
10:52 pm 22:52 Partly Cloudy 78 25.6 73 22.8 85 85 S 13 20 29.88 1012 10 16.0934 0 0
11:52 pm 23:52 Partly Cloudy 77 25 74 23.3 90 90 S 12 19 29.88 1012 10 16.0934 0 0

Powered by AerisWeather